Regional Weather Roundup
Issued by NWS

Home | Current Version | Previous Version | Graphics & Text | Print | Product List | Glossary On
Versions: 1 2 3 4 5 6 7 8 9 10 11 12 13 14 15 16 17 18 19 20 21 22 23 24 25 26 27
000
ASUS45 KBOU 190807
RWRCO

WEATHER ROUNDUP FOR COLORADO
NATIONAL WEATHER SERVICE DENVER/BOULDER CO
100 AM MST THU JAN 19 2017

NOTE: "FAIR" INDICATES FEW OR NO CLOUDS BELOW 12000 FEET WITH NO
SIGNIFICANT WEATHER AND/OR OBSTRUCTIONS TO VISIBILITY.

COZ001>005-013-030-031-190900-
...NORTHWEST COLORADO...

CITY           SKY/WX    TMP DP  RH WIND       PRES   REMARKS
CRAIG          FAIR       3  -2  79 CALM      29.94F
HAYDEN         FAIR      16  10  79 E12       29.92F WCI   3
MEEKER         FAIR      14  11  87 CALM      29.93F
MOUNT WERNER   NOT AVBL
STEAMBOAT SPGS FAIR      10   9  95 CALM      29.94F
WALDEN           N/A    N/A N/A N/A CALM      29.90F
$$

COZ006>008-011-190900-
...WEST CENTRAL VALLEYS...

CITY           SKY/WX    TMP DP  RH WIND       PRES   REMARKS
GRAND JUNCTION FAIR      27  26  96 SE8       29.95F WCI  19
MONTROSE       FAIR      26  23  88 S7        29.98F WCI  18
EAGLE          FAIR      13  10  88 CALM      30.00F
RIFLE          FAIR      24  21  88 E5        29.97F WCI  18
DELTA          FAIR      30  25  84 NE5       29.97F WCI  25
NUCLA          FAIR      28  23  80 SE9       30.00S WCI  20
$$

COZ017>023-064>068-190900-
...SOUTHWEST COLORADO...

CITY           SKY/WX    TMP DP  RH WIND       PRES   REMARKS
DURANGO        FAIR      25  21  85 N3        29.94F
CORTEZ         FAIR      24  23  96 E3        29.97F
PAGOSA SPRINGS CLOUDY    31  30  97 CALM      29.94F
TELLURIDE      FAIR      20  15  79 CALM      29.97S
WOLF CREEK PAS   N/A     18  18 100 NW7       29.96F WCI   8
$$

COZ009-010-012-014-032>034-037-058>063-190900-
...CENTRAL COLORADO...

CITY           SKY/WX    TMP DP  RH WIND       PRES   REMARKS
ASPEN          FAIR      11   6  81 CALM      29.92F
BUENA VISTA    FAIR      13   9  84 E3        29.84F
COPPER MTN     FAIR      23   9  54 MISG      29.92F
BERTHOUD PASS  NOT AVBL
COTTONWOOD PAS FAIR      30  12  47 NW8G17    29.83F WCI  23
GUNNISON       FAIR      -4  -7  87 E5        30.01F WCI -15
KREMMLING      FAIR       5   0  78 CALM      30.00S
LEADVILLE      FAIR      11   8  88 N9        29.88F WCI  -2
MONARCH PASS   FOG       12   9  85 MISG      29.98F VSB 1/4
SALIDA         FAIR      28  18  66 NW8       29.91F WCI  20
SUNLIGHT       NOT AVBL
WILKERSON PASS FAIR      28   1  31 NW10G17   29.85F WCI  19
$$

COZ069>075-190900-
...SAN LUIS VALLEY/SANGRE DE CRISTO MOUNTAINS...

CITY           SKY/WX    TMP DP  RH WIND       PRES   REMARKS
ALAMOSA        CLOUDY    23  22  96 CALM      29.93F
LA VETA PASS   LGT SNOW  18  16  93 MISG      29.79F VSB 1
SAGUACHE       CLOUDY    19  18  93 NW6       29.94F WCI  11
$$

COZ035-036-038>040-190900-
...NORTHERN COLORADO FRONT RANGE...

CITY           SKY/WX    TMP DP  RH WIND       PRES   REMARKS
DENVER INTL AP FAIR      30  15  53 SW12      29.66S WCI  20
DMNS CITY PARK   N/A     31  14  48 SE8       29.67R WCI  24
AURORA         PTCLDY    33  12  43 SW9       29.67F WCI  25
FRONT RANGE AP FAIR      34  18  51 SW7       29.67S WCI  28
ERIE MUNI ARPT FAIR      23  19  84 CALM      29.67S
BOULDER MUN AP FAIR      32  19  59 CALM      29.66F
CENTENNIAL     FAIR      28  11  48 SW3       29.67F
BROOMFIELD     FAIR      34  16  47 W7        29.66F WCI  28
FORT COLLINS   FAIR      30  18  59 CALM      29.67F
LONGMONT       FAIR      26  18  72 CALM      29.68F
$$

COZ041-046-047-076>085-087-088-190900-
...PIKES PEAK/PALMER DIVIDE AND SOUTHERN FOOTHILLS...

CITY           SKY/WX    TMP DP  RH WIND       PRES   REMARKS
COLO. SPRINGS  FAIR      32  10  40 N8        29.66F WCI  25
A. F. ACADEMY  FAIR      28  12  50 N8        29.67F WCI  20
SCHRIEVER AFB  NOT AVBL
ELLICOTT       FAIR     N/A N/A N/A NE5       29.65F
FALCON         FAIR      38   2  22 N12       29.68F
FORT CARSON    CLEAR     30  10  43 S10       29.66F WCI  21
LIMON          FAIR      17  14  88 N6        29.65F WCI   9
MONUMENT HILL  FAIR      27   9  46 W6        29.70F WCI  20
TRINIDAD       FAIR      23  15  71 W16       29.67F WCI  10
$$

COZ042>045-048>051-090-091-190900-
...NORTHEAST COLORADO...

CITY           SKY/WX    TMP DP  RH WIND       PRES   REMARKS
GREELEY ARPT   FAIR      23  22  96 NW6       29.68F WCI  16
AKRON          FAIR      28  18  66 W10       29.65S WCI  19
BURLINGTON     FAIR      28  24  85 SW7       29.65F WCI  21
WRAY           NOT AVBL
STERLING       FAIR      21  19  93 S5        29.65F WCI  15
HOLYOKE        FAIR      19  16  86 W8        29.66F WCI   9
FORT MORGAN    FAIR      25  22  87 W8        29.66S WCI  16
$$

COZ086-089-092>099-190900-
...SOUTHEAST COLORADO...

CITY           SKY/WX    TMP DP  RH WIND       PRES   REMARKS
PUEBLO         FAIR      26  23  88 CALM      29.65F
LA JUNTA       FAIR      21  18  88 W10       29.66F WCI  10
LAMAR          FAIR      20  17  88 SW7       29.65F WCI  11
SPRINGFIELD      N/A     25  22  88 CALM      29.63F
$$




USA.gov is the U.S. government's official web portal to all federal, state and local government web resources and services.